Entrance Island, British Columbia

5:12 AM PST on February 26, 2017 (GMT -0800)
Entrance

Weather History for CWEL - June, 2013

Change the Weather History Date:

Sunday, June 16, 2013

  Actual Average Record
Temperature  
Mean Temperature 62 °F -  
Max Temperature 66 °F - - ()
Min Temperature 58 °F - - ()
Degree Days  
Heating Degree Days 3    
Growing Degree Days 12 (Base 50)    
Moisture  
Dew Point 55 °F    
Average Humidity 76    
Maximum Humidity 83    
Minimum Humidity 61    
Precipitation  
Precipitation 0.00 in - - ()
Sea Level Pressure  
Sea Level Pressure 30.01 in    
Wind  
Wind Speed 5 mph ()    
Max Wind Speed 17 mph    
Max Gust Speed -    
T = Trace of Precipitation, MM = Missing Value Source: Averaged Metar Reports

Daily Weather History Graph

Daily Weather History Graph

Search for Another Location

Airport or City:

Trip Planner

Search our weather history database for the weather conditions in past years. The results will help you decide how hot, cold, wet, or windy it might be!

Date:

Astronomy

Jun. 16, 2013 Rise Set
Actual Time 5:09 AM PDT 9:22 PM PDT
Civil Twilight 4:26 AM PDT 10:06 PM PDT
Nautical Twilight 3:24 AM PDT 11:08 PM PDT
Astronomical Twilight 1:48 AM PDT 12:43 AM PDT
Moon 1:31 PM PDT (6/16) 12:53 AM PDT (6/16)
Length of Visible Light 17h 39m
Length of Day
16h 13m
Waxing Crescent, 51% of the Moon is Illuminated
Jun 16
Waxing Crescent
Jun 23
Full
Jun 29
Last Quarter
Jul 8
New
Jul 15
First Quarter

Hourly Weather History & Observations

Time (PDT) Temp. Dew Point Humidity Pressure Visibility Wind Dir Wind Speed Gust Speed Precip Events Conditions
12:00 AM 61.7 °F 52.9 °F 73% 29.96 in - South 1.2 mph - N/A   Unknown
1:00 AM 63.0 °F 52.9 °F 70% 29.96 in - South 3.5 mph - N/A   Unknown
2:00 AM 60.4 °F 54.5 °F 81% 29.98 in - WNW 2.3 mph - N/A   Unknown
3:00 AM 60.1 °F 53.6 °F 79% 29.98 in - SSE 1.2 mph - N/A   Unknown
4:00 AM 59.0 °F 52.7 °F 80% 29.98 in - WNW 1.2 mph - N/A   Unknown
5:00 AM 59 °F 54 °F 79% 29.99 in - East 1.2 mph - -  
5:00 AM 59.2 °F 54.1 °F 83% 29.99 in - East 1.2 mph - N/A   Unknown
6:00 AM 58.3 °F 53.1 °F 83% 30.01 in - SE 2.3 mph - N/A   Unknown
7:00 AM 59.4 °F 53.4 °F 81% 30.02 in - SSE 9.2 mph - N/A   Unknown
8:00 AM 60.6 °F 53.1 °F 76% 30.03 in - ESE 9.2 mph - N/A   Unknown
9:00 AM 61.3 °F 52.7 °F 73% 30.04 in - SE 12.7 mph - N/A   Unknown
10:00 AM 61.9 °F 52.9 °F 72% 30.04 in - ESE 12.7 mph - N/A   Unknown
11:00 AM 62 °F 52 °F 61% 30.04 in - SE 8.1 mph - -  
11:00 AM 61.9 °F 52.0 °F 70% 30.04 in - SE 8.1 mph - N/A   Unknown
12:00 PM 61.9 °F 53.1 °F 73% 30.04 in - ESE 10.4 mph - N/A   Unknown
1:00 PM 62.6 °F 55.2 °F 77% 30.02 in - ESE 12.7 mph - N/A   Unknown
2:00 PM 63.5 °F 56.1 °F 77% 30.01 in - ESE 12.7 mph - N/A   Unknown
3:00 PM 63.9 °F 56.5 °F 77% 30.01 in - SSE 8.1 mph - N/A   Unknown
4:00 PM 63.1 °F 57.6 °F 82% 29.99 in - ESE 11.5 mph - N/A   Unknown
5:00 PM 66 °F 59 °F 70% 29.99 in - East 4.6 mph - -  
5:00 PM 65.8 °F 58.6 °F 78% 29.99 in - East 4.6 mph - N/A   Unknown
6:00 PM 65.8 °F 57.6 °F 75% 29.99 in - ENE 3.5 mph - N/A   Unknown
7:00 PM 64.2 °F 58.6 °F 82% 29.99 in - SE 6.9 mph - N/A   Unknown
8:00 PM 64.6 °F 58.6 °F 81% 30.00 in - SE 6.9 mph - N/A   Unknown
9:00 PM 63.0 °F 56.7 °F 80% 30.00 in - SE 15.0 mph - N/A   Unknown
10:00 PM 61.7 °F 55.4 °F 80% 30.02 in - SE 13.8 mph - N/A   Unknown
11:00 PM 62 °F 55 °F 70% 30.02 in - SE 17.3 mph - -  
11:00 PM 62.1 °F 54.7 °F 77% 30.02 in - SE 17.3 mph - N/A   Unknown